Regional Weather Roundup
Issued by NWS Mobile, AL

Home | Current Version | Previous Version | Text Only | Print | Product List | Glossary On
Versions: 1 2 3 4 5 6 7 8 9 10 11 12 13 14 15 16 17 18 19 20 21 22 23 24 25 26 27 28 29 30 31 32 33 34 35 36 37 38 39 40 41 42 43 44 45 46 47 48 49 50
000
ASUS44 KMOB 020210
RWRMOB
REGIONAL WEATHER ROUNDUP
NATIONAL WEATHER SERVICE MOBILE AL
900 PM CDT FRI AUG 01 2014

NOTE: "FAIR" INDICATES FEW OR NO CLOUDS BELOW 12,000 FEET WITH NO
      SIGNIFICANT WEATHER AND/OR OBSTRUCTIONS TO VISIBILITY.

  * THESE STATIONS ARE PART OF THE UNIVERSITY OF SOUTH ALABAMA
    MESONET AND ARE NOT UNDER NWS OR FAA QUALITY CONTROL.

ALZ061>064-020300-
COASTAL ALABAMA

CITY           SKY/WX    TMP DP  RH WIND       PRES   REMARKS
MOBILE REG APT CLOUDY    76  70  82 N3        29.99R
BROOKLEY FIELD CLOUDY    76  71  85 NW3       29.98S
USA CAMPUS*      N/A     73  70  88 CALM      29.97R
DOG RIVER*       N/A     77  73  88 NW2       29.98R


CITY           SKY/WX    TMP DP  RH WIND       PRES   REMARKS
MOUNT VERNON*    N/A     73  72  94 CALM      29.98R
SARALAND*      NOT AVBL
BAY MINETTE*   NOT AVBL
LOXLEY*          N/A     73  70  88 CALM      29.98R
ROBERTSDALE*     N/A     72  68  88 CALM      29.97S
FAIRHOPE*        N/A     75  73  94 CALM      29.96S
ELBERTA*         N/A     77  64  65 CALM      29.96S
FOLEY*         NOT AVBL
GRAND BAY*       N/A     75  72  88 CALM      29.95S
DAUPHIN ISLND* NOT AVBL
BON SCOUR NWR* NOT AVBL
GULF SHORES    MOCLDY    76  71  85 CALM      29.96F

$$

ALZ051>060-020300-
INTERIOR SOUTHWEST AND SOUTH CENTRAL ALABAMA

CITY           SKY/WX    TMP DP  RH WIND       PRES   REMARKS
GREENVILLE     PTCLDY    77  71  82 CALM      30.00R
EVERGREEN      PTCLDY    77  71  82 CALM      29.99R
CASTLEBERRY*   NOT AVBL
ATMORE*          N/A     75  73  94 CALM      30.00R
DIXIE*         NOT AVBL
ANDALUSIA/OPP  PTCLDY    81  72  74 E5        29.99R
ANDALUSIA*     NOT AVBL
FLORALA APT    PTCLDY    77  72  84 NE3       30.00S
FLORALA*         N/A     77  70  78 CALM      29.96R

$$

FLZ001>006-020300-
WESTERN FLORIDA PANHANDLE

CITY           SKY/WX    TMP DP  RH WIND       PRES   REMARKS
PENSACOLA      PTCLDY    75  66  73 CALM      29.96S
NAS PENSACOLA  MOCLDY    75  72  90 CALM      29.96S
MILTON         MOCLDY    75  70  84 N5        29.97S
WHTNG S FIELD  MOCLDY    78  70  76 CALM      29.97S


CITY           SKY/WX    TMP DP  RH WIND       PRES   REMARKS
WALNUT HILL*   NOT AVBL
JAY*           NOT AVBL
DUKE FIELD     PTCLDY    77  71  80 CALM      29.97S
CRESTVIEW      CLEAR     75  70  84 CALM      29.99S
VALPARAISO     MOCLDY    80  70  71 CALM      29.97S
DESTIN         CLEAR     83  74  74 CALM      29.96S

$$

MSZ076-079-020300-
INTERIOR SOUTHEAST MISSISSIPPI

CITY           SKY/WX    TMP DP  RH WIND       PRES   REMARKS
LEAKESVILLE*   NOT AVBL
AGRICOLA*      NOT AVBL

$$

MARINE OBSERVATIONS

STATION/POSITION TIME  TEMP    WIND        PRES    WAVE
                       AIR SEA DIR/SP/G            HT/PER
                 (UTC) (F)     (DEG/KT/KT) (MB)    (FT/S)
PASCAGOULA       0200   80     330/  4/  4 1014.7R
PETIT BOIS ISLND 0200   81     190/  1/  2 1015.0R
GRAND BAY        0100   80      10/  3     1016.0S
KATRINA CUT      0100   81        CALM     1015.2S
CEDAR POINT      0100   80      10/  4     1014.9S
E DAUPHIN ISLAND 0100   81      CALM  /  1 1014.7F
MIDDLE BAY LIGHT 0100   82     340/  2     1014.6R
USCG MOBILE BAY  0200   81 82  360/  4/  4 1013.8R
STATE DOCKS      0200   81 83              1014.6S
MEAHER PARK      0100   80      20/  1     1014.6S
WEEKS BAY        0100   78                   N/A
FORT MORGAN      0200   81     350/  2/  3 1014.2S
12 S ORANGE BCH  0200   82 84  340/  4/  4 1014.7F   0
PENSACOLA BAY    0200   83 83  300/  1/  3 1015.0R
64 S DAUPHIN ISL 0056   82 85   60/  4/  6 1015.0
67 S FORT MORGAN 0100   82                 1014.6S

$$

SELECTED LOCATIONS ACROSS THE REGION

CITY           SKY/WX    TMP DP  RH WIND       PRES   REMARKS
NEW ORLEANS    MOCLDY    81  67  62 SE6       29.95F
GULFPORT       CLOUDY    80  70  71 CALM      29.98R
PASCAGOULA AP  CLOUDY    75  72  90 CALM      29.97S
PASCAGOULA*      N/A     77  72  83 CALM      29.97R
HATTIESBURG    MOCLDY    74  71  91 CALM      29.99R
LAUREL         PTCLDY    73  70  88 CALM      30.01S
MERIDIAN       PTCLDY    73  69  87 CALM      30.00R
JACKSON        LGT RAIN  73  70  90 N5        29.99S
MONTGOMERY     MOCLDY    77  71  82 CALM      30.00S
TROY           MOCLDY    74  70  87 CALM      30.01R
KINSTON*       NOT AVBL
GENEVA*          N/A     77  70  78 NE3       30.00R
ASHFORD*       NOT AVBL
DOTHAN         MOCLDY    77  71  82 NE3       30.03R
PANAMA CITY    CLEAR     78  69  73 CALM      29.97R

$$




USA.gov is the U.S. government's official web portal to all federal, state and local government web resources and services.